Showing default

SPACEVAN-002, 68424

Orbit data source: Space-Track

SPACEVAN-002, 68424 is a payload satellite owned by Exotrail (FR) in SSO that was launched on Mon, 30 Mar 2026 UTC via an FALCON 9 launch vehicle from the Air Force Western Test Range (AFWTR). Payload-class satellites include a variety of spacecraft equipped with specific instruments for various scientific and technological missions. These include communications satellites like Starlink; space stations such as the ISS; scientific satellites like the Hubble; Earth observation satellites from companies like Planet Labs, Umbra, and HawkEye 360; GPS; miniature CubeSats for education and research; and military/defense satellites.

Loading next visibility...
Identifier
68424, 2026-067J
Orbit
SSO
Country
Flag of FRFR
Related business
Manufacturer
NanoAvionics
Mission
Operational spacecraft
Bus & Motor
MP42, Unknown motor
Mass
125 kg wet, ~120 kg dry
Launch date (UTC)
2026-03-30 (3 months ago)
Launch vehicle
FALCON 9
Launch site
Air Force Western Test Range (AFWTR)
Object type
Payload
Rocket body
Debris
Shape & HBR
Unknown shape, 1.5 m
Radar Cross Section
Large (>1 m²)

Expand to show TLE details & history
Last TLE update: 2 days ago

TLE from 2 days ago
0 SPACEVAN-002
1 68424U 26067J   26171.44013822  .00002520  00000-0  12656-3 0  9998
2 68424  97.4521 129.8233 0003444  64.6116 295.5474 15.18187534 12430
Epoch: 2026-06-20T10:33Z
TLE epoch observation values (Epoch: 2026-06-20T10:33:47.942Z)
Latitude
-0.00003°
Longitude
62.71881°
Altitude
513.382 km
Speed
7.608 km/s
True Right ascension
08h 39m 17s
True Declination
0° 00' 00"
Sunlit
Object was in daylight at epoch
Visualization orbit readout
Latitude
Unknown
Longitude
Unknown
Altitude
Unknown
Speed
Unknown
Apparent Right ascension
Unknown
Apparent Declination
Unknown
Sunlit
N/A
Visualization observer readout
Local Sidereal Time
13:48:16
Azimuth
Unknown
Elevation
Unknown
Doppler factor
Unknown
Orbital elements
Apogee altitude
510.66 km
Perigee altitude
505.917 km
Semi-major axis
6,886.426 km
Eccentricity
0.00034
Inclination
97.4521°
RAAN
129.8233°
Arg. of periapsis
64.6116°
True anomaly
295.51179°
Mean anomaly
295.5474°
Eccentric anomaly
295.52959°
Mean motion
3.79798 °/min
Orbital period
94.79 mins
BSTAR
0.00012656
Loading maneuver chart data...
Computing Atmospheric mass density...
Loading historical data...
Loading historical data...
Loading historical data...
Loading historical data...
Loading historical data...
Loading historical data...
Loading historical data...

Documentation

Showing up to 5 results
|